Location: ??
(35.5990°N, 139.7298°E)
Time: 04:25:55
(UTC+00:00)

SL-27 R/B - Pass Details

Date: 07 June 2020
Orbit: 420 x 471 km, 74.7° (Epoch: 05 July)

Event Time Altitude Azimuth Distance (km) Brightness Sun altitude
Rises 11:29:41 0° 354° (N) 2,489 7.0 -16.2°
Reaches altitude 10° 11:31:58 10° 4° (N) 1,601 5.7 -16.6°
Maximum altitude 11:35:09 31° 69° (ENE) 810 3.4 -17.0°
Enters shadow 11:35:34 30° 84° (E) 829 3.4 -17.1°
